Regional Weather Roundup
Issued by NWS Wilmington, NC

Home | Current Version | Previous Version | Text Only | Print | Product List | Glossary On
Versions: 1 2 3 4 5 6 7 8 9 10 11 12 13 14 15 16 17 18 19 20 21 22 23 24 25 26 27 28 29 30 31 32 33 34 35 36 37 38 39 40 41 42 43 44 45 46 47 48 49 50
000
ASUS42 KILM 282313
RWRILM
RWRILM
REGIONAL HOURLY WEATHER ROUNDUP
NATIONAL WEATHER SERVICE WILMINGTON NC
700 PM EDT SUN MAY 28 2017

NOTE: "FAIR" INDICATES FEW OR NO CLOUDS BELOW 12,000 FEET WITH NO
SIGNIFICANT WEATHER AND/OR OBSTRUCTIONS TO VISIBILITY.

...............WFO WILMINGTON COUNTY WARNING AREA...............

......COASTAL NC AND SC COUNTIES......

CITY           SKY/WX    TMP DP  RH WIND       PRES   REMARKS
WILMINGTON     MOSUNNY   85  72  65 S9        29.83S HX  91
N MYRTLE BEACH MOSUNNY   81  74  79 SW15      29.83S
MYRTLE BEACH   MOSUNNY   84  73  70 S10       29.85R HX  91

......INLAND NC AND SC COUNTIES.......

CITY           SKY/WX    TMP DP  RH WIND       PRES   REMARKS
LUMBERTON      CLOUDY    86  68  54 VRB7      29.81R
ELIZABETHTOWN  RAIN      87  68  52 SW5       29.82S HX  90
WHITEVILLE     MOSUNNY   86  69  55 SW6       29.82R HX  90
FLORENCE       PTSUNNY   87  70  56 W13       29.81F THUNDER HX  92
DARLINGTON     MOSUNNY   83  70  64 W12       29.82S
KINGSTREE      FAIR      86  68  54 SW13G18   29.83F
HARTSVILLE     FAIR      82  68  61 NW3       29.82F
BENNETTSVILLE  FAIR      90  70  51 W7        29.81F HX  95
CONWAY         FAIR      86  72  62 S6        29.83S HAZE    HX  92
GEORGETOWN     FAIR      82  70  65 SW13      29.87R
MARION         FAIR      86  70  58 SW7G16    29.81S HX  90

....................REST OF NORTH CAROLINA......................

.........EASTERN NC.........

CITY           SKY/WX    TMP DP  RH WIND       PRES   REMARKS
CAPE HATTERAS  MOSUNNY   78  72  81 SW15G23   29.80R
JACKSONVILLE   CLOUDY    87  67  51 SW6       29.82R HX  90
MOREHEAD CITY  SUNNY     80  74  81 SW20G26   29.82S
KENANSVILLE    CLOUDY    86  64  48 W7        29.81S
NEW BERN       CLOUDY    87  66  49 SW6       29.81R
ELIZABETH CITY CLOUDY    77  74  90 N7        29.79R

.........CENTRAL NC.........

CITY           SKY/WX    TMP DP  RH WIND       PRES   REMARKS
RALEIGH DURHAM PTSUNNY   81  66  60 W6        29.82R
ROCKY MOUNT    CLOUDY    84  66  54 W5        29.80R
ROANOKE RAPIDS NOT AVBL
FAYETTEVILLE   MOSUNNY   90  66  45 W8        29.80F HX  92
HOFFMAN        SUNNY     85  67  54 W7        29.81F

.........WESTERN NC.........

CITY           SKY/WX    TMP DP  RH WIND       PRES   REMARKS
CHARLOTTE      PTSUNNY   83  64  52 W8        29.84S
GREENSBORO     PTSUNNY   78  66  66 SW7       29.83S
HICKORY        NOT AVBL
BOONE          NOT AVBL
ASHEVILLE      NOT AVBL

.....................REST OF SOUTH CAROLINA.....................

.........EASTERN SC.........

CITY           SKY/WX    TMP DP  RH WIND       PRES   REMARKS
CHARLESTON     PTSUNNY   86  74  67 S10       29.85F HX  94
BEAUFORT MCAS  SUNNY     90  70  51 SW14      29.86S HX  95
HILTON HEAD    SUNNY     91  68  46 SW9       29.87F HX  95

.........CENTRAL SC.........

CITY           SKY/WX    TMP DP  RH WIND       PRES   REMARKS
COLUMBIA       PTSUNNY   87  70  56 SW14      29.83S THUNDER HX  92
ORANGEBURG     MOSUNNY   86  71  60 SW7       29.85F HX  91
SUMTER SHAW    MOSUNNY   85  70  59 SW14      29.80F HX  90

.........WESTERN SC.........

CITY           SKY/WX    TMP DP  RH WIND       PRES   REMARKS
GREENVILLE     NOT AVBL
ROCK HILL      MOSUNNY   82  65  56 SW9       29.85S
ANDERSON       PTSUNNY   81  67  62 W10       29.89R
CLEMSON        NOT AVBL
GREENWOOD      CLOUDY    83  70  64 W6        29.88S


...................COASTAL AND OFFSHORE REPORTS..................

................LOCAL PIERS AND NC RESERVE................


STATION/POSITION TIME  SKY/WX   TEMP    WIND        PRES    VSBY
                                AIR SEA DIR/SP/G
                 (UTC)          (F)     (DEG/KT/KT) (MB)    (MI)
JOHNY MRCER PIER 2242            80 77  200/ 14/ 15 1009.2R
NC RESRV MASNBRO 2145            84     250/  7     1011.0
OCEAN CREST PIER NOT AVBL
SPRINGMAID  PIER 2236                               1009.8R


................COASTAL AND OFFSHORE BUOYS................


STATION/POSITION TIME  SKY/WX   TEMP    WIND        PRES    VSBY
                                AIR SEA DIR/SP/G
                 (UTC)          (F)     (DEG/KT/KT) (MB)    (MI)
DIMNDSHOAL 41025 2250            78 76  220/ 21/ 25 1009.2R
WVE H/P(F/S)=  4/ 6 SWL H/P/D(F/S/D)=  2/210/ 9

CAPE LOOKOUT     2300            78     230/ 14/ 18 1009.7R
ONSLOW BAY 41036 NOT AVBL
ONSLOW BAY 41064 2208            78 77  240/ 17/ 23 1010.6R
ONSLOW BAY 41159 2243               77                N/A
WVE H/P(F/S)=  5/ 5

MASNBO INL 41110 2159               76                N/A
WVE H/P(F/S)=  3/ 4

WILM HARBR 41108 2247               76                N/A
WVE H/P(F/S)=  4/ 5

27SE WRITB 41037 2208            77 77  220/ 16/ 21 1010.0R
FRYING PAN 41013 2300            77     220/ 16/ 19 1011.0
SUNST NRSH 41024 2208            78 76  230/ 14/ 17 1010.2R
CAPRS NRSH 41029 2208            81 78  220/ 14/ 19 1011.3F
EDISTO     41004 2250            78 76  210/ 14/ 17 1011.9F
WVE H/P(F/S)=  3/ 5 SWL H/P/D(F/S/D)=  2/150/ 8



..........OFFSHORE BUOYS BEYOND 100 NM OFFSHORE...........
.....IN A TRIANGLE---HAT TO BERMUDA TO BAHAMAS TO HAT.....


STATION/POSITION TIME  SKY/WX   TEMP    WIND        PRES    VSBY
                                AIR SEA DIR/SP/G
                 (UTC)          (F)     (DEG/KT/KT) (MB)    (MI)
150E HAT   41001 2300            76 75  210/ 17/ 21 1012.5
W BERMUDA  41048 2300            76     260/  8/ 10 1016.1
ATLANTIC S 41049 2250            77 78  190/  6/  8 1021.3R
WVE H/P(F/S)=  4/ 8 SWL H/P/D(F/S/D)=  3/290/ 8

E BAHAMAS  41046 2300            80     110/  4/  6 1019.5
NE BAHAMAS 41047 2300            79 79  290/  8/ 10 1019.4
120E CANVRL41010 2300            80     240/  6/  6 1015.6

END



USA.gov is the U.S. government's official web portal to all federal, state and local government web resources and services.